Hourly Weather Suhotino

Today, 25 January, Monday

Time Temperature Precipitation Wind Pressure Humidity
00:00 -2°C° 0 mm 6 mps 739 mmHg 94%
01:00 -2°C° 0 mm 6 mps 739 mmHg 91%
02:00 -2°C° 0 mm 6 mps 739 mmHg 89%
03:00 -1°C° 0 mm 6 mps 738 mmHg 86%
04:00 -2°C° 0 mm 6 mps 738 mmHg 86%
05:00 -2°C° 0 mm 6 mps 738 mmHg 85%
06:00 -3°C° 0 mm 7 mps 738 mmHg 85%
07:00 -3°C° 0 mm 7 mps 738 mmHg 87%
08:00 -4°C° 0 mm 7 mps 738 mmHg 89%
09:00 -4°C° 0 mm 7 mps 738 mmHg 91%
10:00 -4°C° 0 mm 7 mps 739 mmHg 92%
11:00 -3°C° 0 mm 7 mps 739 mmHg 93%
12:00 -3°C° 0 mm 7 mps 739 mmHg 93%
13:00 -3°C° 0 mm 7 mps 739 mmHg 94%
14:00 -3°C° 0 mm 6 mps 738 mmHg 94%
15:00 -2°C° 0 mm 5 mps 738 mmHg 95%
16:00 -3°C° 0 mm 6 mps 738 mmHg 96%
17:00 -2°C° 0 mm 6 mps 738 mmHg 96%
18:00 -2°C° 0 mm 6 mps 738 mmHg 97%
19:00 -2°C° 0 mm 6 mps 738 mmHg 97%
20:00 -1°C° 0 mm 5 mps 738 mmHg 97%
21:00 -1°C° 0 mm 5 mps 738 mmHg 97%
22:00 -1°C° 0 mm 5 mps 738 mmHg 97%
23:00 -1°C° 0 mm 5 mps 738 mmHg 97%

Tomorrow, 26 January, Tuesday

Time Temperature Precipitation Wind Pressure Humidity
00:00 -1°C° 0 mm 5 mps 738 mmHg 97%
01:00 -1°C° 0 mm 5 mps 737 mmHg 98%
02:00 -1°C° 0 mm 5 mps 737 mmHg 98%
03:00 -1°C° 0 mm 5 mps 737 mmHg 98%
04:00 -1°C° 0 mm 5 mps 736 mmHg 96%
05:00 -2°C° 0 mm 6 mps 736 mmHg 95%
06:00 -2°C° 0 mm 7 mps 736 mmHg 94%
07:00 -3°C° 0 mm 7 mps 735 mmHg 93%
08:00 -4°C° 0 mm 8 mps 735 mmHg 93%
09:00 -4°C° 0 mm 8 mps 734 mmHg 92%
10:00 -4°C° 0 mm 8 mps 734 mmHg 93%
11:00 -4°C° 0 mm 8 mps 734 mmHg 94%
12:00 -3°C° 0 mm 9 mps 733 mmHg 95%
13:00 -2°C° 0.1 mm 8 mps 733 mmHg 96%
14:00 -2°C° 0.1 mm 8 mps 733 mmHg 97%
15:00 -2°C° 0.1 mm 8 mps 733 mmHg 98%
16:00 -2°C° 0.1 mm 8 mps 733 mmHg 96%
17:00 -2°C° 0.1 mm 8 mps 733 mmHg 93%
18:00 -2°C° 0.1 mm 7 mps 733 mmHg 90%
19:00 -2°C° 0 mm 7 mps 733 mmHg 89%
20:00 -3°C° 0 mm 7 mps 734 mmHg 88%
21:00 -3°C° 0 mm 7 mps 734 mmHg 87%
22:00 -3°C° 0.3 mm 7 mps 734 mmHg 90%
23:00 -3°C° 0.3 mm 7 mps 734 mmHg 93%

Day after tomorrow, 27 January, Wednesday

Time Temperature Precipitation Wind Pressure Humidity
00:00 -3°C° 0.3 mm 7 mps 734 mmHg 96%
01:00 -3°C° 0.2 mm 7 mps 733 mmHg 95%
02:00 -3°C° 0.2 mm 7 mps 733 mmHg 94%
03:00 -3°C° 0.2 mm 6 mps 733 mmHg 93%
04:00 -3°C° 0 mm 7 mps 733 mmHg 91%
05:00 -4°C° 0 mm 7 mps 733 mmHg 90%
06:00 -4°C° 0 mm 7 mps 733 mmHg 88%
07:00 -4°C° 0 mm 7 mps 733 mmHg 88%
08:00 -6°C° 0 mm 7 mps 733 mmHg 88%
09:00 -6°C° 0 mm 8 mps 734 mmHg 88%
10:00 -6°C° 0 mm 7 mps 734 mmHg 88%
11:00 -4°C° 0 mm 7 mps 735 mmHg 88%
12:00 -4°C° 0 mm 7 mps 735 mmHg 88%
13:00 -4°C° 0 mm 6 mps 735 mmHg 88%
14:00 -4°C° 0 mm 5 mps 736 mmHg 89%
15:00 -4°C° 0 mm 4 mps 736 mmHg 90%
16:00 -4°C° 0 mm 4 mps 736 mmHg 91%
17:00 -5°C° 0 mm 3 mps 736 mmHg 92%
18:00 -4°C° 0 mm 2 mps 736 mmHg 94%
19:00 -4°C° 0 mm 2 mps 736 mmHg 93%
20:00 -4°C° 0 mm 2 mps 736 mmHg 93%
21:00 -2°C° 0 mm 1 mps 736 mmHg 92%
22:00 -2°C° 0 mm 1 mps 736 mmHg 92%
23:00 -3°C° 0 mm 2 mps 736 mmHg 91%

28 January, Thursday

Time Temperature Precipitation Wind Pressure Humidity
00:00 -2°C° 0 mm 2 mps 736 mmHg 91%
01:00 -2°C° 0.3 mm 2 mps 736 mmHg 93%
02:00 -2°C° 0.3 mm 3 mps 735 mmHg 96%
03:00 -1°C° 0.3 mm 3 mps 735 mmHg 98%
04:00 -1°C° 0.4 mm 3 mps 735 mmHg 98%
05:00 -1°C° 0.4 mm 3 mps 734 mmHg 98%
06:00 -2°C° 0.4 mm 4 mps 734 mmHg 98%
07:00 -2°C° 0 mm 4 mps 734 mmHg 97%
08:00 -2°C° 0 mm 5 mps 734 mmHg 96%
09:00 -2°C° 0 mm 5 mps 734 mmHg 95%
10:00 -2°C° 0 mm 5 mps 734 mmHg 95%
11:00 -2°C° 0 mm 5 mps 734 mmHg 95%
12:00 -2°C° 0 mm 5 mps 734 mmHg 96%
13:00 -2°C° 0 mm 5 mps 733 mmHg 95%
14:00 -2°C° 0 mm 5 mps 733 mmHg 95%
15:00 -2°C° 0 mm 5 mps 733 mmHg 94%
16:00 -2°C° 0 mm 5 mps 733 mmHg 95%
17:00 -2°C° 0 mm 5 mps 733 mmHg 95%
18:00 -2°C° 0 mm 5 mps 733 mmHg 96%
19:00 -2°C° 0.1 mm 5 mps 732 mmHg 96%
20:00 -2°C° 0.1 mm 5 mps 732 mmHg 97%
21:00 -2°C° 0.1 mm 5 mps 732 mmHg 97%
22:00 -2°C° 0.1 mm 5 mps 732 mmHg 96%
23:00 -2°C° 0.1 mm 5 mps 731 mmHg 96%

29 January, Friday

Time Temperature Precipitation Wind Pressure Humidity
00:00 -2°C° 0.1 mm 5 mps 731 mmHg 95%
01:00 -2°C° 0.4 mm 5 mps 731 mmHg 96%
02:00 -2°C° 0.4 mm 5 mps 731 mmHg 96%
03:00 -2°C° 0.4 mm 4 mps 731 mmHg 97%
04:00 -2°C° 0.1 mm 4 mps 730 mmHg 97%
05:00 -2°C° 0.1 mm 4 mps 730 mmHg 98%
06:00 -1°C° 0.1 mm 4 mps 730 mmHg 98%
07:00 -1°C° 0.1 mm 4 mps 730 mmHg 99%
08:00 -1°C° 0.1 mm 4 mps 730 mmHg 99%
09:00 -1°C° 0.1 mm 4 mps 730 mmHg 99%
10:00 -1°C° 0 mm 4 mps 730 mmHg 99%
11:00 -1°C° 0 mm 4 mps 730 mmHg 99%
12:00 -1°C° 0 mm 4 mps 730 mmHg 99%
13:00 -1°C° 0 mm 4 mps 729 mmHg 99%
14:00 -1°C° 0 mm 4 mps 729 mmHg 98%
15:00 -1°C° 0 mm 4 mps 729 mmHg 97%
16:00 -1°C° 0 mm 4 mps 729 mmHg 96%
17:00 -2°C° 0 mm 4 mps 729 mmHg 96%
18:00 -2°C° 0 mm 4 mps 729 mmHg 95%
19:00 -2°C° 0.1 mm 4 mps 729 mmHg 95%
20:00 -2°C° 0.1 mm 4 mps 729 mmHg 96%
21:00 -3°C° 0.1 mm 4 mps 729 mmHg 96%
22:00 -4°C° 0.1 mm 4 mps 729 mmHg 96%
23:00 -5°C° 0.1 mm 4 mps 730 mmHg 96%

30 January, Saturday

Time Temperature Precipitation Wind Pressure Humidity
00:00 -6°C° 0.1 mm 3 mps 730 mmHg 95%
01:00 -7°C° 0 mm 3 mps 730 mmHg 95%
02:00 -7°C° 0 mm 3 mps 730 mmHg 95%
03:00 -8°C° 0 mm 3 mps 730 mmHg 95%
04:00 -8°C° 0 mm 3 mps 729 mmHg 95%
05:00 -8°C° 0 mm 3 mps 729 mmHg 94%
06:00 -9°C° 0 mm 4 mps 729 mmHg 94%
07:00 -8°C° 0 mm 4 mps 728 mmHg 93%
08:00 -8°C° 0 mm 4 mps 728 mmHg 92%
09:00 -7°C° 0 mm 5 mps 728 mmHg 91%
10:00 -7°C° 0 mm 5 mps 728 mmHg 90%
11:00 -6°C° 0 mm 6 mps 727 mmHg 90%
12:00 -5°C° 0 mm 6 mps 727 mmHg 89%
13:00 -6°C° 0.1 mm 7 mps 726 mmHg 90%
14:00 -6°C° 0.1 mm 7 mps 726 mmHg 91%
15:00 -6°C° 0.1 mm 7 mps 726 mmHg 93%
16:00 -6°C° 0.1 mm 7 mps 725 mmHg 93%
17:00 -6°C° 0.1 mm 7 mps 725 mmHg 93%
18:00 -6°C° 0.1 mm 7 mps 725 mmHg 93%
19:00 -5°C° 0.1 mm 6 mps 725 mmHg 93%
20:00 -5°C° 0.1 mm 6 mps 724 mmHg 93%
21:00 -5°C° 0.1 mm 6 mps 724 mmHg 93%
22:00 -5°C° 0.1 mm 6 mps 724 mmHg 94%
23:00 -4°C° 0.1 mm 6 mps 724 mmHg 94%
Show more